Location: ???????
(55.3754°N, 39.3545°E)
Time: 21:38:50
(UTC+00:00)

FENGYUN 3A - Pass Details

Date: 14 April 2026
Orbit: 821 x 832 km, 98.7° (Epoch: 11 May)

Event Time Altitude Azimuth Distance (km) Brightness Sun altitude
Rises 23:35:36 0° 16° (NNE) 3,393 8.2 -19.3°
Reaches altitude 10° 23:37:59 10° 17° (NNE) 2,455 7.2 -19.1°
Maximum altitude 23:43:26 84° 105° (ESE) 846 3.7 -18.6°
Enters shadow 23:46:18 29° 193° (SSW) 1,472 4.4 -18.4°
